#timestamp,LO_Frequency,Hit,StdDev 
1589608815.6,286047001.7,N
1589608835.4,286047007.3,Y
1589608855.3,286047003.8,P
1589608875.1,286047001.9,N
1589608876.0,286047001.9,N
1589608895.8,286047002.7,Y
1589608915.7,286046993.5,P
1589608935.5,286046993.8,N
1589608955.3,286046996.3,N
1589608975.2,286046994.5,N
1589608995.0,286046993.8,N
1589608995.9,286046993.8,N
1589609015.8,286046997.8,N
1589609035.6,286046996.1,N
1589609055.4,286046997.2,N
1589609075.3,286046998.9,N
1589609095.1,286046999.1,N
1589609115.9,286046997.8,N
1589609135.7,286046994.9,N
1589609155.5,286046997.3,N
1589609175.4,286046997.5,N
1589609195.2,286046999.3,N
1589609215.0,286047000.1,N
1589609216.0,286047000.1,N
1589609235.8,286047003.1,N
1589609255.6,286046999.7,N
1589609275.5,286047002.7,N
1589609295.3,286047002.7,N
1589609315.3,286047000.1,N
1589609335.2,286047011.9,Y
1589609355.9,286047001.0,P
1589609375.7,286047000.6,N
1589609395.6,286047002.3,N
1589609415.4,286047004.1,N
1589609435.2,286046999.9,N
1589609455.1,286047000.8,N
1589609456.0,286047000.8,N
1589609475.8,286047003.4,N
1589609495.7,286047001.4,N
1589609515.5,286047000.2,N
1589609535.3,286046998.1,N
1589609555.2,286046998.6,N
1589609575.0,286047000.6,N
1589609575.9,286047000.6,N
1589609595.8,286047000.7,N
1589609615.6,286047002.6,N
1589609635.5,286047000.2,N
1589609655.3,286047002.5,N
1589609675.1,286046999.8,N
1589609695.9,286047001.1,N
1589609715.7,286047000.6,N
1589609735.5,286046998.1,N
1589609755.4,286046999.2,N
1589609775.2,286047000.1,N
1589609795.1,286047003.9,N
1589609796.0,286047003.9,N
1589609815.8,286047004.0,N
1589609835.6,286047004.4,N
1589609855.5,286047004.2,N
1589609875.3,286047005.6,N
1589609895.2,286047004.9,N
1589609915.9,286047008.9,Y
1589609935.7,286047006.0,P
1589609955.6,286047001.8,N
1589609975.4,286046999.7,N
1589609995.3,286047001.7,N
1589610015.1,286047002.4,N
1589610016.0,286047002.4,N
1589610035.8,286047002.5,N
1589610055.7,286047000.1,N
1589610075.5,286047000.5,N
1589610095.4,286046999.7,N
1589610115.2,286047001.1,N
1589610135.0,286047002.6,N
1589610135.9,286047002.6,N
1589610155.8,286047001.6,N
1589610175.8,286047001.6,N
1589610195.6,286047000.4,N
1589610215.5,286046999.0,N
1589610235.3,286047000.3,N
1589610255.1,286047000.0,N
1589610275.9,286046999.4,N
1589610295.7,286046999.1,N
1589610315.6,286046998.7,N
1589610335.4,286046996.7,N
1589610355.2,286047000.8,N
1589610375.1,286046998.2,N
1589610376.0,286046998.2,N
1589610395.8,286046998.7,N
1589610415.7,286046998.3,N
1589610435.5,286046999.0,N
1589610455.3,286046998.8,N
1589610475.2,286047001.0,N
1589610495.0,286047000.0,N
1589610495.9,286047000.0,N
1589610515.7,286047000.7,N
1589610535.6,286047000.4,N
1589610555.4,286047000.3,N
1589610575.3,286047004.0,N
1589610595.1,286047002.7,N
1589610596.0,286047002.7,N
1589610615.8,286047001.0,N
1589610635.7,286047001.2,N
1589610655.5,286047002.8,N
1589610675.4,286047003.9,N
1589610695.2,286047003.9,N
1589610715.0,286047001.4,N
1589610715.9,286047001.4,N
1589610735.8,286047001.9,N
1589610755.6,286047002.6,N
1589610775.5,286047001.0,N
1589610795.3,286047001.7,N
1589610815.1,286046999.8,N
1589610835.9,286047000.1,N
1589610855.7,286047001.9,N
1589610875.5,286047002.4,N
1589610895.4,286047001.6,N
1589610915.2,286046999.8,N
1589610935.1,286047000.6,N
1589610936.0,286047000.6,N
1589610955.8,286047001.0,N
1589610975.6,286047002.5,N
1589610995.5,286047002.2,N
1589611015.3,286046998.6,N
1589611035.2,286046999.9,N
1589611055.9,286047002.5,N
1589611075.7,286047001.6,N
1589611095.6,286047002.3,N
1589611115.4,286047002.6,N
1589611135.2,286047001.3,N
1589611155.1,286047004.3,Y
1589611156.0,286047004.3,P
1589611175.8,286047006.0,P
1589611195.7,286047003.4,N
1589611215.5,286047002.2,N
1589611235.3,286047001.5,N
1589611255.2,286047002.8,N
1589611275.0,286047000.3,N
1589611275.9,286047000.3,N
1589611295.8,286047001.1,N
1589611315.6,286047000.6,N
1589611335.4,286047001.3,N
1589611355.3,286047000.0,N
1589611375.1,286046999.9,N
1589611395.8,286047000.3,N
1589611415.7,286047000.3,N
1589611435.5,286047004.1,N
1589611455.4,286047000.5,N
1589611475.2,286046998.6,N
1589611525.1,286046996.6,E
1589611535.9,286046999.0,N
1589611555.7,286047001.5,P
1589611575.6,286047002.6,N
1589611595.4,286047000.0,N
1589611615.2,286047002.7,N
1589611635.1,286047000.0,N
1589611636.0,286047000.0,N
1589611655.8,286047002.7,N
1589611675.7,286047001.9,N
1589611695.5,286046999.8,N
1589611715.3,286047000.0,N
1589611735.2,286046999.8,N
1589611755.0,286047000.1,N
1589611755.9,286047000.1,N
1589611775.7,286047002.6,N
1589611795.6,286047000.0,N
1589611815.4,286047002.8,N
1589611835.3,286047002.7,N
1589611855.1,286047002.5,N
1589611875.8,286047002.6,N
1589611895.7,286046999.7,N
1589611915.5,286047000.2,N
1589611935.4,286046999.8,N
1589611955.2,286047004.2,Y
1589611975.0,286047002.3,P
1589611975.9,286047002.3,P
1589611995.8,286047001.9,P
1589612015.6,286047003.5,Y
1589612035.5,286047000.0,P
1589612055.3,286047000.6,N
1589612075.1,286047000.5,N
1589612095.9,286047000.2,N
1589612115.7,286047000.9,N
1589612135.6,286046999.7,N
1589612155.4,286046999.7,N
1589612175.2,286047002.1,Y
1589612195.1,286047000.9,P
1589612196.0,286047000.9,P
1589612215.8,286046996.9,P
1589612235.7,286046995.0,Y
1589612255.5,286046997.0,P
1589612275.3,286046998.8,N
1589612295.2,286046999.4,N
1589612315.0,286046996.5,Y
1589612315.9,286046996.5,P
1589612335.7,286046999.8,N
1589612355.6,286047001.8,N
1589612375.4,286047004.4,N
1589612395.3,286047001.4,N
